• In Czech Republic
  • List of Countries
  • For 7 days
  • Water Temperature
  • Satellite Maps
  • Weather Map
  • Weather Widgets
  • user-avatar
    Login

    Hourly Weather Shibam

    Today, 21 September, Friday

    Time Temperature Precipitation Wind Pressure Humidity
    00:00 +18°C° 0 mm 2 mps 561 mmHg 37%
    01:00 +17°C° 0.2 mm 2 mps 561 mmHg 37%
    02:00 +17°C° 0.2 mm 2 mps 560 mmHg 38%
    03:00 +16°C° 0.2 mm 2 mps 560 mmHg 38%
    04:00 +16°C° 0 mm 2 mps 560 mmHg 38%
    05:00 +16°C° 0 mm 2 mps 560 mmHg 38%
    06:00 +15°C° 0 mm 1 mps 560 mmHg 38%
    07:00 +17°C° 0 mm 3 mps 561 mmHg 33%
    08:00 +19°C° 0 mm 4 mps 562 mmHg 28%
    09:00 +21°C° 0 mm 5 mps 564 mmHg 24%
    10:00 +22°C° 0 mm 5 mps 564 mmHg 21%
    11:00 +23°C° 0 mm 6 mps 564 mmHg 19%
    12:00 +24°C° 0 mm 6 mps 564 mmHg 17%
    13:00 +24°C° 0 mm 7 mps 564 mmHg 18%
    14:00 +24°C° 0 mm 7 mps 564 mmHg 19%
    15:00 +24°C° 0 mm 7 mps 563 mmHg 20%
    16:00 +23°C° 0.3 mm 6 mps 563 mmHg 23%
    17:00 +22°C° 0.3 mm 5 mps 562 mmHg 27%
    18:00 +21°C° 0.3 mm 5 mps 562 mmHg 30%
    19:00 +21°C° 0.3 mm 4 mps 562 mmHg 34%
    20:00 +20°C° 0.3 mm 3 mps 562 mmHg 37%
    21:00 +19°C° 0.3 mm 2 mps 562 mmHg 40%
    22:00 +19°C° 0.1 mm 2 mps 562 mmHg 41%
    23:00 +18°C° 0.1 mm 2 mps 562 mmHg 42%

    Tomorrow, 22 September, Saturday

    Time Temperature Precipitation Wind Pressure Humidity
    00:00 +18°C° 0.1 mm 2 mps 562 mmHg 42%
    01:00 +18°C° 0 mm 2 mps 561 mmHg 43%
    02:00 +18°C° 0 mm 1 mps 561 mmHg 43%
    03:00 +18°C° 0 mm 1 mps 561 mmHg 44%
    04:00 +16°C° 0 mm 1 mps 560 mmHg 44%
    05:00 +16°C° 0 mm 1 mps 560 mmHg 44%
    06:00 +16°C° 0 mm 1 mps 560 mmHg 43%
    07:00 +18°C° 0 mm 2 mps 562 mmHg 37%
    08:00 +19°C° 0 mm 3 mps 563 mmHg 31%
    09:00 +21°C° 0 mm 5 mps 564 mmHg 25%
    10:00 +22°C° 0 mm 5 mps 565 mmHg 23%
    11:00 +23°C° 0 mm 6 mps 565 mmHg 21%
    12:00 +24°C° 0 mm 7 mps 565 mmHg 19%
    13:00 +24°C° 0 mm 7 mps 565 mmHg 19%
    14:00 +24°C° 0 mm 7 mps 564 mmHg 20%
    15:00 +26°C° 0 mm 8 mps 564 mmHg 21%
    16:00 +23°C° 0 mm 7 mps 563 mmHg 24%
    17:00 +22°C° 0 mm 7 mps 563 mmHg 27%
    18:00 +21°C° 0 mm 6 mps 562 mmHg 30%
    19:00 +20°C° 0.4 mm 5 mps 562 mmHg 32%
    20:00 +20°C° 0.4 mm 4 mps 563 mmHg 33%
    21:00 +19°C° 0.4 mm 3 mps 563 mmHg 35%
    22:00 +19°C° 0.2 mm 3 mps 563 mmHg 35%
    23:00 +18°C° 0.2 mm 2 mps 562 mmHg 36%

    Day after tomorrow, 23 September, Sunday

    Time Temperature Precipitation Wind Pressure Humidity
    00:00 +17°C° 0.2 mm 2 mps 562 mmHg 36%
    01:00 +17°C° 0 mm 2 mps 562 mmHg 36%
    02:00 +18°C° 0 mm 1 mps 561 mmHg 36%
    03:00 +16°C° 0 mm 1 mps 561 mmHg 36%
    04:00 +16°C° 0 mm 1 mps 561 mmHg 35%
    05:00 +15°C° 0 mm 1 mps 561 mmHg 35%
    06:00 +15°C° 0 mm 1 mps 561 mmHg 34%
    07:00 +17°C° 0 mm 3 mps 562 mmHg 31%
    08:00 +19°C° 0 mm 4 mps 564 mmHg 27%
    09:00 +21°C° 0 mm 6 mps 565 mmHg 24%
    10:00 +22°C° 0 mm 6 mps 565 mmHg 21%
    11:00 +23°C° 0 mm 7 mps 565 mmHg 19%
    12:00 +24°C° 0 mm 7 mps 566 mmHg 17%
    13:00 +26°C° 0 mm 7 mps 565 mmHg 18%
    14:00 +26°C° 0 mm 7 mps 565 mmHg 18%
    15:00 +26°C° 0 mm 7 mps 564 mmHg 19%
    16:00 +24°C° 0.1 mm 6 mps 564 mmHg 23%
    17:00 +22°C° 0.1 mm 6 mps 563 mmHg 26%
    18:00 +21°C° 0.1 mm 5 mps 563 mmHg 30%
    19:00 +21°C° 0.2 mm 4 mps 563 mmHg 33%
    20:00 +20°C° 0.2 mm 3 mps 563 mmHg 37%
    21:00 +19°C° 0.2 mm 2 mps 563 mmHg 40%
    22:00 +19°C° 0 mm 2 mps 563 mmHg 41%
    23:00 +19°C° 0 mm 1 mps 562 mmHg 43%

    24 September, Monday

    Time Temperature Precipitation Wind Pressure Humidity
    00:00 +19°C° 0 mm 1 mps 562 mmHg 44%
    01:00 +18°C° 0 mm 1 mps 561 mmHg 45%
    02:00 +18°C° 0 mm 1 mps 561 mmHg 46%
    03:00 +18°C° 0 mm 1 mps 560 mmHg 46%
    04:00 +16°C° 0 mm 1 mps 560 mmHg 47%
    05:00 +16°C° 0 mm 1 mps 560 mmHg 47%
    06:00 +15°C° 0 mm 1 mps 560 mmHg 47%
    07:00 +17°C° 0 mm 2 mps 562 mmHg 41%
    08:00 +19°C° 0 mm 3 mps 563 mmHg 34%
    09:00 +21°C° 0 mm 4 mps 564 mmHg 28%
    10:00 +22°C° 0 mm 4 mps 564 mmHg 26%
    11:00 +23°C° 0 mm 5 mps 564 mmHg 23%
    12:00 +26°C° 0 mm 6 mps 564 mmHg 21%
    13:00 +26°C° 0 mm 6 mps 564 mmHg 21%
    14:00 +26°C° 0 mm 6 mps 563 mmHg 22%
    15:00 +26°C° 0 mm 7 mps 563 mmHg 22%
    16:00 +24°C° 0.5 mm 6 mps 562 mmHg 26%
    17:00 +22°C° 0.5 mm 6 mps 562 mmHg 29%
    18:00 +21°C° 0.5 mm 5 mps 562 mmHg 33%
    19:00 +21°C° 0.1 mm 4 mps 562 mmHg 37%
    20:00 +20°C° 0.1 mm 3 mps 562 mmHg 40%
    21:00 +19°C° 0.1 mm 2 mps 562 mmHg 44%
    22:00 +19°C° 0.1 mm 2 mps 562 mmHg 45%
    23:00 +18°C° 0.1 mm 2 mps 561 mmHg 46%

    25 September, Tuesday

    Time Temperature Precipitation Wind Pressure Humidity
    00:00 +18°C° 0.1 mm 2 mps 561 mmHg 47%
    01:00 +18°C° 0 mm 1 mps 561 mmHg 47%
    02:00 +18°C° 0 mm 1 mps 560 mmHg 48%
    03:00 +18°C° 0 mm 1 mps 560 mmHg 48%
    04:00 +16°C° 0 mm 1 mps 560 mmHg 47%
    05:00 +16°C° 0 mm 1 mps 560 mmHg 46%
    06:00 +16°C° 0 mm 1 mps 560 mmHg 45%
    07:00 +17°C° 0 mm 2 mps 561 mmHg 39%
    08:00 +19°C° 0 mm 2 mps 563 mmHg 33%
    09:00 +21°C° 0 mm 3 mps 564 mmHg 27%
    10:00 +22°C° 0 mm 4 mps 564 mmHg 25%
    11:00 +23°C° 0 mm 5 mps 564 mmHg 23%
    12:00 +25°C° 0 mm 5 mps 564 mmHg 21%
    13:00 +25°C° 0 mm 5 mps 563 mmHg 23%
    14:00 +25°C° 0 mm 5 mps 563 mmHg 24%
    15:00 +25°C° 0 mm 5 mps 562 mmHg 25%
    16:00 +23°C° 0.5 mm 5 mps 562 mmHg 29%
    17:00 +22°C° 0.5 mm 5 mps 562 mmHg 32%
    18:00 +21°C° 0.5 mm 4 mps 562 mmHg 35%
    19:00 +20°C° 0.1 mm 4 mps 562 mmHg 37%
    20:00 +20°C° 0.1 mm 3 mps 562 mmHg 39%
    21:00 +19°C° 0.1 mm 3 mps 562 mmHg 42%
    22:00 +19°C° 0 mm 3 mps 562 mmHg 42%
    23:00 +18°C° 0 mm 2 mps 562 mmHg 42%

    26 September, Wednesday

    Time Temperature Precipitation Wind Pressure Humidity
    00:00 +18°C° 0 mm 2 mps 561 mmHg 42%
    01:00 +18°C° 0 mm 2 mps 561 mmHg 41%
    02:00 +17°C° 0 mm 2 mps 560 mmHg 39%
    03:00 +17°C° 0 mm 2 mps 560 mmHg 38%
    04:00 +16°C° 0 mm 1 mps 560 mmHg 37%
    05:00 +16°C° 0 mm 1 mps 560 mmHg 37%
    06:00 +15°C° 0 mm 1 mps 560 mmHg 36%
    07:00 +17°C° 0 mm 2 mps 561 mmHg 32%
    08:00 +19°C° 0 mm 3 mps 563 mmHg 28%
    09:00 +21°C° 0 mm 4 mps 564 mmHg 24%
    10:00 +21°C° 0 mm 4 mps 564 mmHg 22%
    11:00 +22°C° 0 mm 5 mps 564 mmHg 20%
    12:00 +23°C° 0 mm 5 mps 564 mmHg 18%
    13:00 +24°C° 0 mm 6 mps 564 mmHg 18%
    14:00 +24°C° 0 mm 6 mps 563 mmHg 19%
    15:00 +24°C° 0 mm 6 mps 563 mmHg 20%
    16:00 +23°C° 0.1 mm 6 mps 562 mmHg 22%
    17:00 +22°C° 0.1 mm 6 mps 562 mmHg 25%
    18:00 +21°C° 0.1 mm 6 mps 562 mmHg 28%
    19:00 +20°C° 0.5 mm 5 mps 562 mmHg 31%
    20:00 +20°C° 0.5 mm 5 mps 562 mmHg 33%
    21:00 +19°C° 0.5 mm 4 mps 562 mmHg 35%
    22:00 +18°C° 0.1 mm 3 mps 562 mmHg 36%
    23:00 +18°C° 0.1 mm 3 mps 562 mmHg 37%
    Show more